Houston Hull, TX

5:33 PM CDT on October 22, 2019 (GMT -0500)
Sugar Land Municipal-Hull

Weather History for KSGR - August, 2019

Change the Weather History Date:

Sunday, August 18, 2019

  Actual Average Record
Temperature  
Mean Temperature 86 °F -  
Max Temperature 95 °F 94 °F 102 °F (1951)
Min Temperature 78 °F 73 °F 65 °F (1992)
Cooling Degree Days 22    
Growing Degree Days 36 (Base 50)    
Moisture  
Dew Point 78 °F    
Average Humidity 79    
Maximum Humidity 97    
Minimum Humidity 54    
Precipitation  
Precipitation 0.07 in - - ()
Sea Level Pressure  
Sea Level Pressure 29.91 in    
Wind  
Wind Speed 8 mph (South)    
Max Wind Speed 20 mph    
Max Gust Speed 28 mph    
Visibility 10 miles    
Events Rain , Thunderstorm    
Averages and records for this station are not official NWS values.
T = Trace of Precipitation, MM = Missing Value Source: NWS Daily Summary

Daily Weather History Graph

Daily Weather History Graph

Search for Another Location

Airport or City:

Astronomy

Aug. 18, 2019 Rise Set
Actual Time 6:52 AM CDT 8:00 PM CDT
Civil Twilight 6:27 AM CDT 8:25 PM CDT
Nautical Twilight 5:57 AM CDT 8:54 PM CDT
Astronomical Twilight 5:27 AM CDT 9:25 PM CDT
Moon 10:07 PM CDT (8/18) 9:28 AM CDT (8/18)
Length of Visible Light 13h 57m
Length of Day
13h 08m
Waning Gibbous, 91% of the Moon is Illuminated
Aug 18
Waning Gibbous
Aug 23
Last Quarter
Aug 30
New
Sep 5
First Quarter
Sep 13
Full

Hourly Weather History & Observations

Time (CDT) Temp. Heat Index Dew Point Humidity Pressure Visibility Wind Dir Wind Speed Gust Speed Precip Events Conditions
12:53 AM 81.0 °F 88.6 °F 78.1 °F 91% 29.91 in 10.0 mi SSE 6.9 mph - N/A   Clear
1:53 AM 80.1 °F 86.4 °F 78.1 °F 94% 29.88 in 10.0 mi South 6.9 mph - N/A   Partly Cloudy
2:53 AM 80.1 °F 86.4 °F 78.1 °F 94% 29.88 in 10.0 mi South 6.9 mph - N/A   Scattered Clouds
3:53 AM 80.1 °F 86.4 °F 78.1 °F 94% 29.89 in 10.0 mi South 5.8 mph - N/A   Clear
4:53 AM 79.0 °F - 78.1 °F 97% 29.89 in 10.0 mi SSE 4.6 mph - N/A   Clear
5:53 AM 79.0 °F - 78.1 °F 97% 29.88 in 10.0 mi SSE 4.6 mph - N/A   Clear
6:53 AM 78.1 °F - 77.0 °F 96% 29.89 in 10.0 mi Calm Calm - N/A   Partly Cloudy
7:53 AM 81.0 °F 89.2 °F 79.0 °F 94% 29.92 in 10.0 mi SSE 3.5 mph - N/A   Mostly Cloudy
8:53 AM 84.9 °F 98.9 °F 80.1 °F 85% 29.92 in 10.0 mi South 6.9 mph - N/A   Partly Cloudy
9:53 AM 88.0 °F 103.1 °F 79.0 °F 75% 29.93 in 10.0 mi SSW 11.5 mph - N/A   Scattered Clouds
10:53 AM 91.9 °F 108.8 °F 79.0 °F 66% 29.93 in 10.0 mi SW 11.5 mph - N/A   Scattered Clouds
11:14 AM 84.9 °F 100.3 °F 81.0 °F 88% 29.94 in 2.5 mi South 6.9 mph - 0.07 in Rain Light Rain
11:21 AM 88.0 °F 106.2 °F 81.0 °F 80% 29.94 in 10.0 mi South 9.2 mph - 0.07 in Rain Light Rain
11:53 AM 87.1 °F 99.8 °F 78.1 °F 74% 29.95 in 10.0 mi SW 18.4 mph 27.6 mph 0.07 in Thunderstorm Partly Cloudy
12:00 PM 84.9 °F 94.1 °F 75.9 °F 74% 29.94 in 10.0 mi SW 15.0 mph 24.2 mph N/A Thunderstorm Thunderstorm
12:15 PM 86.0 °F 98.3 °F 78.1 °F 77% 29.93 in 10.0 mi SW 8.1 mph - 0.00 in Rain Light Rain
12:53 PM 86.0 °F 96.0 °F 75.9 °F 72% 29.93 in 10.0 mi SW 8.1 mph - 0.00 in   Overcast
1:53 PM 93.0 °F 109.7 °F 79.0 °F 63% 29.91 in 10.0 mi SSW 15.0 mph 24.2 mph N/A   Clear
2:53 PM 95.0 °F 111.4 °F 78.1 °F 58% 29.90 in 10.0 mi SSW 12.7 mph - N/A   Partly Cloudy
3:53 PM 95.0 °F 109.7 °F 77.0 °F 56% 29.88 in 10.0 mi SSE 19.6 mph 24.2 mph N/A   Clear
4:53 PM 95.0 °F 108.2 °F 75.9 °F 54% 29.87 in 10.0 mi SSW 10.4 mph - N/A   Partly Cloudy
5:53 PM 91.9 °F 105.9 °F 77.0 °F 62% 29.88 in 10.0 mi SSE 16.1 mph - N/A   Partly Cloudy
6:53 PM 91.0 °F 102.9 °F 75.9 °F 61% 29.88 in 10.0 mi South 15.0 mph - N/A   Clear
7:53 PM 88.0 °F 100.2 °F 77.0 °F 70% 29.89 in 10.0 mi SSE 12.7 mph - N/A   Clear
8:53 PM 84.9 °F 95.3 °F 77.0 °F 77% 29.90 in 10.0 mi SSE 11.5 mph - N/A   Clear
9:53 PM 84.0 °F 94.8 °F 78.1 °F 82% 29.91 in 10.0 mi SSE 11.5 mph - N/A   Clear
10:53 PM 82.0 °F 91.0 °F 78.1 °F 88% 29.93 in 10.0 mi SSE 6.9 mph - N/A   Clear
11:53 PM 80.1 °F 86.4 °F 78.1 °F 94% 29.94 in 10.0 mi South 6.9 mph - N/A   Clear